Flugplatz Hengsen-Opherdicke (UL)

Hier findest Du alle Informationen zum Flugplatz Hengsen-Opherdicke (UL).

Informationen für Piloten zum Flugplatz Hengsen-Opherdicke

Hier findest Du alle relevanten Informationen, die Du als Pilot benötigst, um Hengsen-Opherdicke anzufliegen.

Flugplatz: Hengsen-Opherdicke ICAO-Code: UL Flugplatz
Frequenz Turm: 123.350 Mhz GAFOR Gebiet: 33
Frequenz Ground: 123.350 Mhz Mogas: nein
Platzrunde: S 1400 ft Landegebühr: 3,5 €
Platzhöhe: - Sunrise: 05:23 Uhr UTC
Pisten: 07/25 - 580 m x 30 m, GRAS Sunset: 17:16 Uhr UTC

Mitglieder, die in Hengsen-Opherdicke fliegen

Flugwetter am Flugplatz Hengsen-Opherdicke

Die METAR Information stammen aus EDLW (5.37 km entfernt).

METAR Code:
2022/09/12 07:50
EDLW 120750Z 16004KT 120V190 CAVOK 17/12 Q1016

Flugschulen am Flugplatz Hengsen-Opherdicke

Am Flugplatz Hengsen-Opherdicke gibt es leider keine Flugschule.

Benachbarte Flugplätze und Flugschulen

Es gibt 25 weitere Flugplätze in einem Umkreis von 50 km um den Flugplatz Hengsen-Opherdicke.

Jetzt anmelden

Passwort vergessen

Umfrage Archiv

Sendet Ihr ADS-B und/oder FLARM?

Ja
83.8 %
Nein
16.2 %
Stimmen: 222 | Diskussion
Anzeige: Roland Aircraft
Statistik Alle Mitglieder

Aktuell sind 42 Besucher online.

Anzeige: ULPower Aero Engines Anzeige: Pocket FMS